CW8045 Weather Reports


time (UTC)temp
F
wind
direction
speed
knots
gust
knots
rain 1hr
in
rain 24hr
in
rain mn
in
humidity
%
barometer
mb
20260507212702 50 345 0.0 1.7 0.00 0.00 0.00 87 1015.7
20260507211802 50 345 0.0 1.7 0.00 0.00 0.00 87 1015.7
20260507210923 50 345 0.0 1.7 0.00 0.00 0.00 87 1015.7
20260507210002 51 0 0.0 0.0 0.00 0.00 0.00 86 1015.7
20260507205423 51 0 0.0 0.0 0.00 0.00 0.00 86 1015.7
20260507204503 51 0 0.0 0.0 0.00 0.00 0.00 86 1015.6
20260507203602 52 0 0.0 0.9 0.00 0.00 0.00 85 1015.6
20260507202702 52 0 0.0 0.9 0.00 0.00 0.00 85 1015.6
20260507201803 53 345 0.0 1.7 0.00 0.00 0.00 84 1015.5
20260507200923 53 0 0.0 1.7 0.00 0.00 0.00 84 1015.4
20260507200002 53 344 0.0 1.7 0.00 0.00 0.00 83 1015.3
20260507195402 53 341 0.9 3.5 0.00 0.00 0.00 83 1015.2
20260507194524 54 344 0.9 1.7 0.00 0.00 0.00 82 1015.1
20260507193603 54 16 0.9 3.5 0.00 0.00 0.00 82 1015.0
20260507192702 54 41 0.9 3.5 0.00 0.00 0.00 82 1014.9
20260507191823 54 37 0.9 3.5 0.00 0.00 0.00 82 1014.9
20260507190923 54 35 0.0 1.7 0.00 0.00 0.00 82 1014.7
20260507190004 55 0 0.0 0.0 0.00 0.00 0.00 82 1014.7
20260507185424 55 0 0.0 1.7 0.00 0.00 0.00 81 1014.8
20260507184502 55 35 0.0 1.7 0.00 0.00 0.00 81 1014.8
20260507183623 55 35 0.0 0.9 0.00 0.00 0.00 81 1014.7
20260507182702 55 35 0.9 1.7 0.00 0.00 0.00 81 1014.7
20260507181803 55 35 0.9 1.7 0.00 0.00 0.00 81 1014.6
20260507180902 55 35 0.0 1.7 0.00 0.00 0.00 80 1014.5
20260507180002 56 37 0.9 3.5 0.00 0.00 0.00 80 1014.4
20260507175403 56 36 0.9 3.5 0.00 0.00 0.00 79 1014.5
20260507174502 56 6 0.9 3.5 0.00 0.00 0.00 78 1014.5
20260507173602 56 2 1.7 3.5 0.00 0.00 0.00 77 1014.5
20260507172702 56 9 1.7 3.5 0.00 0.00 0.00 77 1014.6
20260507171802 56 359 0.9 3.5 0.00 0.00 0.00 77 1014.6
20260507170903 56 331 0.9 3.5 0.00 0.00 0.00 77 1014.7
20260507170002 56 335 0.9 4.3 0.00 0.00 0.00 77 1014.6
20260507165402 56 344 0.9 4.3 0.00 0.00 0.00 77 1014.6
20260507164502 56 359 0.9 5.2 0.00 0.00 0.00 77 1014.7
20260507163602 56 327 0.9 3.5 0.00 0.00 0.00 78 1014.7
20260507162723 56 322 0.9 3.5 0.00 0.00 0.00 78 1014.7
20260507161802 56 305 0.9 4.3 0.00 0.00 0.00 78 1014.7
20260507160902 56 298 2.6 4.3 0.00 0.00 0.00 78 1014.6
20260507160023 56 302 2.6 5.2 0.00 0.00 0.00 77 1014.7
20260507155403 56 297 1.7 4.3 0.00 0.00 0.00 77 1014.7
20260507154502 56 294 1.7 5.2 0.00 0.00 0.00 77 1014.7
20260507153602 56 308 0.9 3.5 0.00 0.00 0.00 77 1014.6
20260507152702 56 319 0.9 3.5 0.00 0.00 0.00 76 1014.7
20260507151802 56 325 0.9 3.5 0.00 0.00 0.00 75 1014.7
20260507150903 57 326 0.0 3.5 0.00 0.00 0.00 75 1014.7
20260507150002 57 344 0.9 3.5 0.00 0.00 0.00 74 1014.7
20260507145403 57 4 0.9 3.5 0.00 0.00 0.00 72 1014.7
20260507144523 57 4 0.0 3.5 0.00 0.00 0.00 72 1014.7
20260507143602 57 4 0.0 1.7 0.00 0.00 0.00 72 1014.8
20260507142702 57 6 0.9 1.7 0.00 0.00 0.00 71 1014.9
20260507141802 57 13 0.9 3.5 0.00 0.00 0.00 73 1014.8
20260507140902 57 45 0.9 1.7 0.00 0.00 0.00 72 1015.0
20260507140002 57 28 1.7 4.3 0.00 0.00 0.00 72 1015.0
20260507135402 57 29 0.9 3.5 0.00 0.00 0.00 74 1015.0
20260507134502 57 83 0.9 2.6 0.00 0.00 0.00 73 1015.0
20260507133624 57 88 0.9 3.5 0.00 0.00 0.00 73 1014.9
20260507132702 57 54 2.6 5.2 0.00 0.00 0.00 74 1015.0
20260507131803 57 71 2.6 4.3 0.00 0.00 0.00 72 1014.9
20260507130904 57 72 0.9 4.3 0.00 0.00 0.00 74 1014.9
20260507130002 56 99 0.9 3.5 0.00 0.00 0.00 74 1015.0
20260507125402 56 131 0.0 1.7 0.00 0.00 0.00 75 1015.0
20260507124502 56 135 0.0 1.7 0.00 0.00 0.00 75 1015.0
20260507123603 56 137 0.0 1.7 0.00 0.00 0.00 77 1015.0
20260507122702 56 0 0.0 0.0 0.00 0.00 0.00 77 1015.0
20260507121802 57 0 0.0 0.0 0.00 0.00 0.00 77 1015.0
20260507120902 57 137 0.0 1.7 0.00 0.00 0.00 75 1015.1
20260507120024 57 137 0.0 1.7 0.00 0.00 0.00 72 1015.0
20260507115402 57 149 0.0 1.7 0.00 0.00 0.00 73 1015.0
20260507114502 58 191 0.0 1.7 0.00 0.00 0.00 72 1015.0
20260507113603 58 195 0.0 1.7 0.00 0.00 0.00 73 1015.0
20260507112703 58 184 0.0 1.7 0.00 0.00 0.00 72 1015.0
20260507111802 58 270 1.7 4.3 0.00 0.00 0.00 72 1015.0
20260507110924 58 301 1.7 6.1 0.00 0.00 0.00 74 1015.0
20260507110004 58 347 1.7 4.3 0.00 0.00 0.00 77 1015.0
20260507105404 58 63 1.7 3.5 0.00 0.00 0.00 77 1015.1
20260507104502 57 104 0.9 1.7 0.00 0.00 0.00 77 1015.0
20260507103602 56 180 0.9 3.5 0.00 0.00 0.00 81 1015.0
20260507102724 56 175 1.7 3.5 0.00 0.00 0.00 85 1015.1
20260507101802 55 305 0.9 3.5 0.00 0.00 0.00 87 1015.2
20260507100902 54 290 0.9 3.5 0.00 0.00 0.00 87 1015.3
20260507100002 54 309 0.9 3.5 0.00 0.00 0.00 89 1015.3
20260507095402 53 324 0.0 3.5 0.00 0.00 0.00 90 1015.3
20260507094502 53 298 0.9 3.5 0.00 0.00 0.00 90 1015.3
20260507093602 52 298 0.9 3.5 0.00 0.00 0.00 92 1015.2
20260507092703 52 305 0.9 3.5 0.00 0.00 0.00 93 1015.1
20260507091823 51 300 0.9 3.5 0.00 0.00 0.00 93 1015.1
20260507090902 51 0 0.0 0.0 0.00 0.00 0.00 93 1015.1
20260507090002 51 303 0.0 1.7 0.00 0.00 0.00 93 1015.0
20260507085403 51 305 0.9 1.7 0.00 0.00 0.00 93 1015.0
20260507084503 50 316 0.0 1.7 0.00 0.00 0.00 93 1014.9
20260507083602 50 317 0.0 1.7 0.00 0.00 0.00 94 1014.9
20260507082702 50 0 0.0 0.0 0.00 0.00 0.00 94 1014.9
20260507081824 50 0 0.0 0.0 0.00 0.00 0.00 94 1014.8
20260507080903 50 0 0.0 0.0 0.00 0.00 0.00 95 1014.7
20260507080003 49 0 0.0 0.0 0.00 0.00 0.00 95 1014.5
20260507075402 49 0 0.0 0.0 0.00 0.00 0.00 95 1014.4
20260507074503 49 0 0.0 0.0 0.00 0.00 0.00 95 1014.7
20260507073603 48 0 0.0 0.0 0.00 0.00 0.00 95 1014.6
20260507072702 48 0 0.0 0.0 0.00 0.00 0.00 95 1014.5
20260507071803 48 0 0.0 0.0 0.00 0.00 0.00 95 1014.5
20260507070904 48 0 0.0 0.0 0.00 0.00 0.00 95 1014.4
20260507070004 47 0 0.0 0.0 0.00 0.00 0.00 95 1014.4
20260507065403 47 0 0.0 0.0 0.00 0.00 0.00 95 1014.3
20260507064503 47 0 0.0 0.0 0.00 0.00 0.00 95 1014.2
20260507063624 47 0 0.0 0.0 0.00 0.00 0.00 95 1014.3
20260507062702 47 0 0.0 0.0 0.00 0.00 0.00 95 1014.1
20260507061824 47 0 0.0 0.0 0.00 0.00 0.00 95 1014.1
20260507060903 46 0 0.0 0.0 0.00 0.00 0.00 95 1014.2
20260507060002 46 0 0.0 0.0 0.00 0.00 0.00 95 1014.2
20260507055403 46 0 0.0 0.0 0.00 0.00 0.00 95 1014.1
20260507054503 46 343 0.9 1.7 0.00 0.00 0.00 95 1014.1
20260507053625 46 343 0.0 1.7 0.00 0.00 0.00 95 1014.0
20260507052703 46 344 0.9 1.7 0.00 0.00 0.00 95 1013.9
20260507051803 45 348 0.0 1.7 0.00 0.00 0.00 95 1013.8
20260507050925 45 349 0.0 1.7 0.00 0.00 0.00 95 1013.6
20260507050003 45 346 0.9 1.7 0.00 0.00 0.00 95 1013.6
20260507045403 45 343 0.9 1.7 0.00 0.00 0.00 95 1013.5
20260507044524 44 336 0.9 1.7 0.00 0.00 0.00 95 1013.5
20260507043604 44 336 0.0 3.5 0.00 0.00 0.00 95 1013.4
20260507042703 44 312 0.9 3.5 0.00 0.00 0.00 95 1013.2
20260507041803 44 288 0.9 3.5 0.00 0.00 0.00 94 1013.3
20260507040903 44 274 1.7 3.5 0.00 0.00 0.00 94 1013.3
20260507040003 44 298 0.9 3.5 0.00 0.00 0.00 95 1013.2
20260507035403 44 303 0.9 3.5 0.00 0.00 0.00 95 1013.2
20260507034524 44 301 1.7 3.5 0.00 0.00 0.00 95 1013.2
20260507033603 44 295 1.7 3.5 0.00 0.00 0.00 95 1013.1
20260507032703 43 284 0.9 3.5 0.00 0.00 0.00 95 1013.0
20260507031804 43 274 0.9 1.7 0.00 0.00 0.00 95 1013.1
20260507030903 43 0 0.0 0.0 0.00 0.00 0.00 94 1013.1
20260507030003 42 0 0.0 0.0 0.00 0.00 0.00 94 1013.1
20260507025403 42 0 0.0 0.0 0.00 0.00 0.00 93 1013.1
20260507024503 42 0 0.0 0.0 0.00 0.00 0.00 93 1013.0
20260507023603 42 0 0.0 0.0 0.00 0.00 0.00 93 1012.9
20260507022704 42 0 0.0 0.0 0.00 0.00 0.00 93 1013.0
20260507021825 42 0 0.0 0.0 0.00 0.00 0.00 93 1012.9
20260507020903 42 275 0.0 0.9 0.00 0.00 0.00 93 1012.9
20260507020003 43 0 0.0 0.0 0.00 0.00 0.00 92 1012.9
20260507015424 43 275 0.0 1.7 0.00 0.00 0.00 93 1012.9
20260507014503 43 274 0.9 1.7 0.00 0.00 0.00 93 1012.9
20260507013603 43 273 1.7 3.5 0.00 0.00 0.00 93 1012.8
20260507012703 43 272 1.7 3.5 0.00 0.00 0.00 93 1012.8
20260507011803 43 272 0.9 1.7 0.00 0.00 0.00 93 1012.9
20260507010903 44 271 0.9 1.7 0.00 0.00 0.00 93 1012.8
20260507010024 44 277 1.7 3.5 0.00 0.00 0.00 93 1012.8
20260507005403 44 290 0.9 3.5 0.00 0.00 0.00 92 1012.8
20260507004503 44 0 0.0 0.0 0.00 0.00 0.00 92 1012.8
20260507003603 44 0 0.0 0.0 0.00 0.00 0.00 92 1012.8
20260507002703 44 301 0.0 0.9 0.00 0.00 0.00 92 1012.8
20260507001803 44 0 0.0 0.0 0.00 0.00 0.00 92 1012.9
20260507000924 44 0 0.0 1.7 0.00 0.00 0.00 92 1012.9
20260507000003 43 302 0.0 1.7 0.00 0.00 0.00 91 1012.9
20260506235403 44 302 0.0 1.7 0.00 0.00 0.00 91 1012.9
20260506234524 44 302 0.0 1.7 0.00 0.00 0.00 91 1012.8
20260506233603 44 302 0.0 1.7 0.00 0.00 0.00 90 1012.9
20260506232724 44 0 0.0 0.0 0.00 0.00 0.00 90 1012.9
20260506231825 44 0 0.0 0.0 0.00 0.00 0.00 89 1012.9
20260506230903 45 302 0.0 1.7 0.00 0.00 0.00 90 1012.8
20260506230003 45 303 0.9 1.7 0.00 0.00 0.00 90 1012.8
20260506225404 45 303 0.9 1.7 0.00 0.00 0.00 90 1012.7
20260506224503 45 301 0.9 3.5 0.00 0.00 0.00 89 1012.7
20260506223604 46 312 0.9 1.7 0.00 0.00 0.00 89 1012.6
20260506222703 46 304 0.9 3.5 0.00 0.00 0.00 89 1012.6
20260506221803 46 296 0.9 1.7 0.00 0.00 0.00 88 1012.6
20260506220903 46 306 0.9 1.7 0.00 0.00 0.00 88 1012.5
20260506220004 46 296 1.7 4.3 0.00 0.00 0.00 88 1012.5
20260506215403 46 299 0.9 3.5 0.00 0.00 0.00 88 1012.5
20260506214503 46 294 0.9 3.5 0.00 0.00 0.00 88 1012.4
20260506213603 47 300 0.9 3.5 0.00 0.00 0.00 87 1012.4